1335398432806,158.023
1335398492806,157.992
1335398552806,157.820
1335398612806,157.985
1335398672806,157.808
1335398732806,157.945
1335398792806,158.143
1335398852806,157.975
1335398912806,157.943
1335398972806,157.878
1335399032806,157.941
1335399092806,157.937
1335399152806,158.023
1335399212806,158.059
1335399272806,157.734
1335399332806,157.504
1335399392806,158.074
1335399452806,157.862
1335399512806,157.645
1335399572806,157.537
1335399632806,157.791
1335399692806,158.149
1335399752806,158.235
1335399812806,157.882
1335399872806,158.181
1335399932806,157.622
1335399992806,157.949
1335400052806,157.663
1335400112806,158.202
1335400172806,158.015
1335400232806,157.946
1335400292806,157.946
1335400352806,157.943
1335400412806,158.095
1335400472806,158.273
1335400532806,157.875
1335400592806,157.840
1335400652806,158.189
1335400712806,157.833
1335400772806,158.153
1335400832806,157.943
1335400892806,158.367
1335400952806,157.863
1335401012806,157.738
1335401072806,157.786
1335401132806,157.803
1335401192806,157.760
1335401252806,158.151
1335401312806,157.969
1335401372806,157.812
1335401432806,157.715
1335401492806,157.919
1335401552806,158.105
1335401612806,158.190
1335401672806,157.919
1335401732806,157.861
1335401792806,157.925
1335401852806,158.161
1335401912806,158.113
1335401972806,158.018
1335402032817,157.878
1335402092817,158.098
1335402152817,158.387
1335402212817,158.197
1335402272817,157.980
1335402332817,158.475
1335402392817,158.220
1335402452817,158.370
1335402512817,158.550
1335402572817,158.638
1335402632817,158.468
1335402692817,158.525
1335402752817,158.407
1335402812817,158.549
1335402872817,158.166
1335402932817,158.304
1335402992817,158.311
1335403052817,158.506
1335403112817,158.696
1335403172817,158.427
1335403232817,158.658
1335403292817,158.574
1335403352817,158.617
1335403412817,158.842
1335403472817,158.883
1335403532817,158.512
1335403592817,158.688
1335403652817,158.717
1335403712817,158.462
1335403772817,158.265
1335403832817,158.842
1335403892817,158.716
1335403952817,158.315
1335404012817,158.723
1335404072817,158.786
1335404132817,158.655
1335404192817,158.579
1335404252817,158.287
1335404312817,158.509
1335404372817,158.220
1335404432817,158.576
1335404492817,158.474
1335404552817,158.457
1335404612817,158.385
1335404672817,158.713
1335404732817,158.591
1335404792817,158.081
1335404852817,158.220
1335404912817,158.136
1335404972817,158.154
1335405032817,158.200
1335405092817,158.057
1335405152817,158.185
1335405212817,158.291
1335405272817,158.388
1335405332817,158.391
1335405392817,158.304
1335405452817,158.272
1335405512817,157.917
1335405572817,158.386
1335405632828,158.187
1335405692828,157.977
1335405752828,157.837
1335405812828,157.836
1335405872828,157.878
1335405932828,157.752
1335405992828,158.514
1335406052828,158.262
1335406112828,158.060
1335406172828,158.388
1335406232828,158.056
1335406292828,158.095
1335406352828,157.950
1335406412828,158.057
1335406472828,158.173
1335406532828,158.404
1335406592828,158.288
1335406652828,157.924
1335406712828,158.265
1335406772828,158.214
1335406832828,158.279
1335406892828,157.960
1335406952828,157.984
1335407012828,158.481
1335407072828,158.049
1335407132828,157.799
1335407192828,157.982
1335407252828,158.095
1335407312828,157.757
1335407372828,158.034
1335407432828,158.285
1335407492828,158.366
1335407552828,158.136
1335407612828,158.193
1335407672828,158.003
1335407732828,158.369
1335407792828,158.012
1335407852828,157.974
1335407912828,158.182
1335407972828,159.511
1335408032828,158.812
1335408092828,158.163
1335408152828,158.153
1335408212828,158.395
1335408272828,158.366
1335408332828,158.156
1335408392828,158.172
1335408452828,158.253
1335408512828,158.119
1335408572828,158.323
1335408632828,158.238
1335408692828,158.102
1335408752828,157.838
1335408812828,158.049
1335408872828,158.149
1335408932828,158.113
1335408992828,158.439
1335409052828,158.364
1335409112828,158.077
1335409172828,158.329
1335409232839,158.233
1335409292839,158.188
1335409352839,158.057
1335409412838,158.036
1335409472838,158.501
1335409532838,158.302
1335409592838,158.259
1335409652838,158.331
1335409712838,158.186
1335409772838,158.216
1335409832838,158.184
1335409892838,158.294
1335409952838,158.193
1335410012838,157.959
1335410072838,158.084
1335410132838,158.066
1335410192838,158.088
1335410252838,157.889
1335410312838,157.805
1335410372838,157.706
1335410432838,157.799
1335410492839,157.749
1335410552839,157.577
1335410612839,157.681
1335410672839,157.940
1335410732839,157.870
1335410792838,157.861
1335410852838,157.717
1335410912838,157.616
1335410972838,157.819
1335411032838,157.721
1335411092838,157.556
1335411152838,157.812
1335411212838,157.939
1335411272838,157.329
1335411332838,157.521
1335411392838,157.519
1335411452838,157.676
1335411512838,157.599
1335411572838,157.560
1335411632838,157.358
1335411692838,157.509
1335411752838,157.643
1335411812839,157.728
1335411872839,157.432
1335411932839,157.481
1335411992839,157.695
1335412052839,157.425
1335412112838,157.417
1335412172838,157.477
1335412232838,157.414
1335412292838,157.641
1335412352838,157.167
1335412412838,157.023
1335412472838,157.332
1335412532838,157.299
1335412592838,157.238
1335412652838,157.437
1335412712838,157.450
1335412772838,157.226
1335412832849,157.104
1335412892849,157.305
1335412952849,157.310
1335413012849,157.345
1335413072849,156.940
1335413132849,157.342
1335413192849,157.342
1335413252849,156.963
1335413312849,157.352
1335413372849,157.147
1335413432849,157.150
1335413492849,157.464
1335413552849,156.982
1335413612849,157.564
1335413672849,157.595
1335413732849,157.370
1335413792849,157.361
1335413852849,157.297
1335413912849,157.393
1335413972849,157.525
1335414032849,157.469
1335414092849,157.283
1335414152849,157.407
1335414212849,157.563
1335414272849,157.079
1335414332849,157.456
1335414392849,157.371
1335414452849,157.543
1335414512849,157.491
1335414572849,157.638
1335414632849,157.210
1335414692849,157.715
1335414752849,157.416
1335414812849,157.837
1335414872849,157.296
1335414932849,157.366
1335414992849,157.794
1335415052849,157.550
1335415112849,157.470
1335415172849,157.380
1335415232849,157.401
1335415292849,157.941
1335415352849,157.463
1335415412849,157.669
1335415472849,157.633
1335415532849,157.536
1335415592849,157.607
1335415652849,157.784
1335415712849,157.850
1335415772849,157.703
1335415832849,157.629
1335415892849,157.360
1335415952849,157.691
1335416012849,158.013
1335416072849,157.741
1335416132849,158.024
1335416192849,157.989
1335416252849,157.996
1335416312849,157.670
1335416372849,158.019
1335416432860,157.802
1335416492860,157.720
1335416552860,157.889
1335416612860,157.991
1335416672860,157.856
1335416732860,158.028
1335416792860,157.807
1335416852860,157.917
1335416912860,157.821
1335416972860,158.051
1335417032860,158.119
1335417092860,157.809
1335417152860,158.170
1335417212860,158.177
1335417272860,157.737
1335417332860,157.993
1335417392860,157.756
1335417452860,158.269
1335417512860,158.226
1335417572860,158.167
1335417632860,158.328
1335417692860,158.117
1335417752860,158.058
1335417812860,158.136
1335417872860,158.180
1335417932860,157.981
1335417992860,158.044
1335418052860,157.915
1335418112860,158.024
1335418172860,158.096
1335418232860,158.154
1335418292860,158.417
1335418352860,158.199
1335418412860,158.019
1335418472860,157.713
1335418532860,157.882
1335418592860,158.091
1335418652860,158.098
1335418712860,158.237
1335418772860,157.946
1335418832860,157.885
1335418892859,158.227
1335418952860,158.012
1335419012860,157.796
1335419072860,158.041
1335419132860,157.882
1335419192860,158.122
1335419252860,158.226
1335419312860,157.964
1335419372860,158.059
1335419432860,158.123
1335419492860,158.017
1335419552860,157.998
1335419612860,158.257
1335419672860,158.142
1335419732860,158.097
1335419792860,158.140
1335419852860,157.764
1335419912860,157.868
1335419972860,157.849
1335420032870,157.998
1335420092870,157.965
1335420152870,158.254
1335420212870,157.779
1335420272870,157.938
1335420332870,157.937
1335420392870,158.098
1335420452870,157.740
1335420512870,157.913
1335420572870,158.198
1335420632870,158.080
1335420692870,158.199
1335420752870,158.053
1335420812870,158.038
1335420872870,158.097
1335420932870,157.975
1335420992870,158.235
1335421052870,157.920
1335421112870,158.096
1335421172870,158.072
1335421232870,158.018
1335421292870,157.841
1335421352870,158.289
1335421412870,158.188
1335421472870,158.033
1335421532870,157.932
1335421592870,157.869
1335421652870,157.985
1335421712870,158.017
1335421772870,158.016
1335421832870,157.663
1335421892870,158.010
1335421952870,157.574
1335422012870,157.719
1335422072870,157.489
1335422132870,157.693
1335422192870,157.968
1335422252870,157.604
1335422312870,157.391
1335422372870,157.742
1335422432870,157.792
1335422492870,157.674
1335422552870,157.267
1335422612870,157.202
1335422672870,157.658
1335422732870,157.324
1335422792870,157.124
1335422852870,157.609
1335422912870,157.573
1335422972870,157.175
1335423032870,157.554
1335423092870,157.314
1335423152870,157.275
1335423212870,156.966
1335423272870,157.340
1335423332870,157.234
1335423392870,157.179
1335423452870,157.246
1335423512870,157.458
1335423572870,157.030
1335423632880,157.146
1335423692880,157.207
1335423752880,157.479
1335423812880,157.210
1335423872880,157.345
1335423932880,157.169
1335423992880,157.525
1335424052880,157.358
1335424112880,157.200
1335424172880,157.212
1335424232880,156.989
1335424292880,157.131
1335424352880,157.033
1335424412880,157.078
1335424472880,156.791
1335424532880,156.954
1335424592880,156.702
1335424652880,157.114
1335424712880,156.927
1335424772880,157.112
1335424832880,156.784
1335424892880,156.890
1335424952880,156.947
1335425012880,157.237
1335425072880,156.909
1335425132880,156.935
1335425192880,157.025
1335425252880,156.846
1335425312880,157.011
1335425372880,156.794
1335425432880,156.826
1335425492880,156.839
1335425552880,156.983
1335425612880,156.629
1335425672880,156.835
1335425732880,157.045
1335425792880,157.225
1335425852880,156.720
1335425912880,156.805
1335425972880,156.956
1335426032880,156.577
1335426092880,156.644
1335426152880,156.653
1335426212880,156.706
1335426272880,156.965
1335426332880,156.695
1335426392880,157.029
1335426452880,157.002
1335426512880,156.932
1335426572880,156.883
1335426632880,156.835
1335426692880,156.750
1335426752880,156.590
1335426812880,156.773
1335426872880,156.397
1335426932880,156.766
1335426992880,156.809
1335427052880,156.601
1335427112880,156.600
1335427172880,156.612
1335427232891,156.594
1335427292891,156.495
1335427352891,156.692
1335427412891,156.849
1335427472891,156.754
1335427532891,156.375
1335427592891,156.494
1335427652891,156.732
1335427712891,156.599
1335427772891,156.565
1335427832891,156.524
1335427892891,156.383
1335427952891,156.664
1335428012891,156.510
1335428072891,156.646
1335428132891,156.670
1335428192891,156.708
1335428252891,156.664
1335428312891,156.777
1335428372891,156.670
1335428432891,156.592
1335428492891,156.793
1335428552891,156.854
1335428612891,156.686
1335428672891,156.398
1335428732891,156.230
1335428792891,156.724
1335428852891,157.123
1335428912891,156.845
1335428972891,156.839
1335429032891,156.935
1335429092891,156.947
1335429152891,156.747
1335429212891,156.622
1335429272891,156.577
1335429332891,156.806
1335429392891,156.498
1335429452891,156.892
1335429512891,156.591
1335429572891,156.480
1335429632891,156.445
1335429692891,156.581
1335429752891,156.546
1335429812891,156.470
1335429872891,156.529
1335429932891,156.523
1335429992891,156.512
1335430052891,156.283
1335430112891,156.423
1335430172891,156.666
1335430232891,156.443
1335430292891,156.556
1335430352891,156.490
1335430412891,156.527
1335430472891,156.592
1335430532891,156.492
1335430592891,156.484
1335430652891,156.109
1335430712891,156.616
1335430772891,156.367
1335430832901,156.554
1335430892901,156.707
1335430952901,156.485
1335431012901,156.683
1335431072901,156.638
1335431132901,156.693
1335431192901,156.530
1335431252901,156.902
1335431312901,156.795
1335431372901,156.377
1335431432901,156.500
1335431492901,156.661
1335431552901,156.594
1335431612901,156.492
1335431672901,156.597
1335431732901,156.638
1335431792901,156.816
1335431852901,156.504
1335431912901,156.747
1335431972901,156.439
1335432032901,156.165
1335432092901,156.709
1335432152901,156.737
1335432212901,156.491
1335432272901,156.447
1335432332901,156.537
1335432392901,156.627
1335432452901,156.758
1335432512901,156.636
1335432572901,156.418
1335432632901,156.287
1335432692901,156.208
1335432752901,156.452
1335432812901,156.432
1335432872901,156.571
1335432932901,156.482
1335432992901,156.553
1335433052901,156.489
1335433112901,156.585
1335433172901,156.867
1335433232901,156.556
1335433292901,156.868
1335433352901,156.640
1335433412901,156.530
1335433472901,156.777
1335433532901,156.817
1335433592901,157.024
1335433652901,157.033
1335433712901,156.672
1335433772901,156.708
1335433832901,156.931
1335433892901,156.908
1335433952901,156.640
1335434012901,157.062
1335434072901,156.770
1335434132901,156.589
1335434192901,157.297
1335434252901,156.763
1335434312901,157.164
1335434372901,157.064
1335434432912,156.602
1335434492912,156.739
1335434552912,157.167
1335434612912,157.361
1335434672912,157.096
1335434732912,157.151
1335434792912,157.062
1335434852912,156.823
1335434912912,156.624
1335434972912,156.705
1335435032912,157.089
1335435092912,156.985
1335435152912,156.891
1335435212912,156.871
1335435272912,156.890
1335435332912,156.852
1335435392912,157.075
1335435452912,157.404
1335435512912,157.053
1335435572912,157.396
1335435632912,156.987
1335435692912,156.948
1335435752912,157.027
1335435812912,156.445
1335435872912,156.794
1335435932912,157.178
1335435992912,156.429
1335436052912,156.615
1335436112912,156.680
1335436172912,156.767
1335436232912,156.548
1335436292912,156.712
1335436352912,156.454
1335436412912,156.635
1335436472912,156.513
1335436532912,156.557
1335436592912,156.557
1335436652912,156.620
1335436712912,156.354
1335436772912,156.362
1335436832912,156.433
1335436892912,156.689
1335436952912,156.996
1335437012912,156.453
1335437072912,156.349
1335437132912,156.649
1335437192912,156.374
1335437252912,156.669
1335437312912,156.665
1335437372912,156.536
1335437432912,156.612
1335437492912,156.653
1335437552912,156.766
1335437612912,156.714
1335437672912,156.800
1335437732912,156.634
1335437792912,156.690
1335437852912,156.787
1335437912912,156.450
1335437972912,156.601
1335438032922,156.639
1335438092922,156.842
1335438152922,156.852
1335438212922,156.627
1335438272922,156.686
1335438332922,156.625
1335438392922,156.619
1335438452922,156.803
1335438512922,156.902
1335438572922,156.983
1335438632922,156.559
1335438692922,156.788
1335438752922,156.788
1335438812922,156.841
1335438872922,156.572
1335438932922,156.692
1335438992922,157.209
1335439052922,156.754
1335439112922,156.841
1335439172922,156.922
1335439232922,156.839
1335439292922,156.868
1335439352922,156.783
1335439412922,156.618
1335439472922,156.706
1335439532922,157.251
1335439592922,156.954
1335439652922,156.730
1335439712922,156.924
1335439772922,157.103
1335439832922,156.606
1335439892922,156.924
1335439952922,156.846
1335440012922,156.761
1335440072922,157.103
1335440132922,157.134
1335440192922,156.922
1335440252922,156.877
1335440312922,156.508
1335440372922,156.755
1335440432922,157.531
1335440492922,156.971
1335440552922,157.144
1335440612922,157.409
1335440672922,156.889
1335440732922,156.996
1335440792922,157.037
1335440852922,157.346
1335440912922,157.383
1335440972922,157.154
1335441032922,157.066
1335441092922,157.178
1335441152922,157.362
1335441212922,157.238
1335441272922,157.605
1335441332922,157.192
1335441392922,157.393
1335441452922,157.810
1335441512922,157.179
1335441572922,157.348
1335441632932,157.457
1335441692932,157.764
1335441752932,157.706
1335441812932,157.677
1335441872932,157.237
1335441932932,157.668
1335441992932,157.729
1335442052932,157.648
1335442112932,158.091
1335442172932,157.708
1335442232932,157.717
1335442292932,157.893
1335442352932,158.137
1335442412932,158.112
1335442472932,158.208
1335442532932,158.222
1335442592932,157.732
1335442652932,157.945
1335442712932,158.510
1335442772932,157.981
1335442832932,158.270
1335442892932,158.035
1335442952932,158.045
1335443012932,158.035
1335443072932,158.100
1335443132932,158.295
1335443192932,158.139
1335443252932,158.280
1335443312932,158.299
1335443372932,158.471
1335443432932,158.243
1335443492932,158.204
1335443552932,158.198
1335443612932,158.335
1335443672932,158.326
1335443732932,158.359
1335443792932,158.411
1335443852932,158.412
1335443912932,158.172
1335443972932,158.611
1335444032932,158.396
1335444092932,158.494
1335444152932,158.497
1335444212932,158.556
1335444272932,158.660
1335444332932,158.554
1335444392932,158.576
1335444452932,158.512
1335444512932,158.747
1335444572932,158.553
1335444632932,158.263
1335444692932,158.468
1335444752932,158.350
1335444812932,158.481
1335444872932,158.648
1335444932932,158.528
1335444992932,158.564
1335445052932,158.563
1335445112932,158.695
1335445172932,158.575
1335445232942,158.694
1335445292942,158.462
1335445352942,158.368
1335445412942,158.354
1335445472942,158.789
1335445532942,158.323
1335445592942,158.618
1335445652942,158.814
1335445712942,158.508
1335445772942,158.756
1335445832942,158.659
1335445892942,158.983
1335445952942,158.295
1335446012942,158.580
1335446072942,158.617
1335446132942,158.880
1335446192942,158.845
1335446252943,158.273
1335446312943,158.672
1335446372943,158.492
1335446432943,158.613
1335446492943,158.472
1335446552943,158.833
1335446612942,158.571
1335446672942,158.541
1335446732942,158.622
1335446792942,158.812
1335446852942,158.652
1335446912942,158.534
1335446972942,158.613
1335447032942,158.678
1335447092942,158.536
1335447152942,158.898
1335447212942,158.559
1335447272942,158.717
1335447332942,158.601
1335447392942,158.695
1335447452942,158.821
1335447512942,158.566
1335447572942,158.397
1335447632943,159.087
1335447692943,158.628
1335447752943,158.942
1335447812943,158.811
1335447872943,158.870
1335447932942,159.076
1335447992942,158.582
1335448052942,158.878
1335448112942,158.694
1335448172942,158.534
1335448232942,158.899
1335448292942,158.974
1335448352942,158.430
1335448412942,158.721
1335448472942,158.683
1335448532942,158.656
1335448592942,158.745
1335448652942,158.431
1335448712942,158.737
1335448772942,158.645
1335448832953,158.516
1335448892953,159.002
1335448952953,158.592
1335449012953,158.587
1335449072953,158.473
1335449132953,158.664
1335449192953,158.868
1335449252953,158.910
1335449312953,158.701
1335449372953,158.559
1335449432953,158.946
1335449492953,158.786
1335449552953,158.938
1335449612953,158.603
1335449672953,158.792
1335449732953,158.860
1335449792953,158.788
1335449852953,159.095
1335449912953,158.445
1335449972953,159.098
1335450032953,159.067
1335450092953,158.847
1335450152953,158.956
1335450212953,159.014
1335450272953,158.927
1335450332953,158.933
1335450392953,158.633
1335450452953,158.582
1335450512953,158.707
1335450572953,159.059
1335450632953,159.103
1335450692953,159.148
1335450752953,158.842
1335450812953,158.955
1335450872953,158.828
1335450932953,158.749
1335450992953,158.686
1335451052953,158.869
1335451112953,158.506
1335451172953,158.513
1335451232953,158.489
1335451292953,158.662
1335451352953,158.799
1335451412953,158.590
1335451472953,158.901
1335451532953,159.025
1335451592953,158.727
1335451652953,158.805
1335451712953,158.521
1335451772953,158.373
1335451832953,158.642
1335451892953,158.845
1335451952953,158.701
1335452012953,158.494
1335452072953,158.561
1335452132953,158.775
1335452192953,158.904
1335452252953,158.889
1335452312953,158.562
1335452372953,158.791
1335452432963,158.461
1335452492963,158.641
1335452552963,159.357
1335452612963,158.897
1335452672963,158.714
1335452732963,158.953
1335452792963,158.741
1335452852963,159.053
1335452912963,158.725
1335452972963,159.139
1335453032963,158.417
1335453092963,158.744
1335453152963,159.178
1335453212963,158.535
1335453272963,158.547
1335453332963,159.031
1335453392963,158.857
1335453452963,158.953
1335453512963,158.660
1335453572963,158.654
1335453632963,158.575
1335453692963,158.582
1335453752963,158.748
1335453812963,158.726
1335453872963,158.478
1335453932963,158.675
1335453992963,158.768
1335454052963,158.432
1335454112963,158.789
1335454172963,158.889
1335454232963,158.739
1335454292963,158.671
1335454352963,158.971
1335454412963,158.836
1335454472963,158.978
1335454532963,158.708
1335454592963,158.712
1335454652963,158.914
1335454712963,158.573
1335454772963,158.827
1335454832963,158.637
1335454892963,159.057
1335454952963,158.510
1335455012963,158.554
1335455072963,159.201
1335455132963,158.857
1335455192963,158.996
1335455252963,158.933
1335455312963,159.173
1335455372963,158.956
1335455432963,158.493
1335455492963,158.598
1335455552963,158.832
1335455612963,158.163
1335455672963,158.909
1335455732963,158.780
1335455792963,158.539
1335455852963,158.793
1335455912963,158.817
1335455972963,158.594
1335456032973,158.803
1335456092973,158.767
1335456152973,158.785
1335456212973,158.818
1335456272973,158.399
1335456332973,158.639
1335456392973,158.682
1335456452973,159.011
1335456512973,158.797
1335456572973,158.727
1335456632973,158.625
1335456692973,158.682
1335456752973,158.812
1335456812973,158.542
1335456872973,158.502
1335456932973,158.268
1335456992973,158.367
1335457052973,158.582
1335457112973,158.519
1335457172973,158.663
1335457232973,158.892
1335457292973,158.952
1335457352973,158.740
1335457412973,158.911
1335457472973,158.418
1335457532973,158.534
1335457592973,158.851
1335457652973,158.845
1335457712973,158.927
1335457772973,158.939
1335457832973,158.589
1335457892973,158.881
1335457952973,158.776
1335458012973,159.229
1335458072973,158.925
1335458132973,158.674
1335458192973,158.945
1335458252973,158.814
1335458312973,158.907
1335458372973,158.806
1335458432973,158.880
1335458492973,159.044
1335458552973,158.962
1335458612973,159.133
1335458672973,158.639
1335458732973,158.634
1335458792973,158.917
1335458852973,159.033
1335458912973,158.788
1335458972973,159.028
1335459032973,159.180
1335459092973,159.076
1335459152973,158.781
1335459212973,158.813
1335459272973,159.106
1335459332973,159.244
1335459392973,159.239
1335459452973,159.119
1335459512973,159.194
1335459572973,159.114
1335459632983,158.973
1335459692983,159.045
1335459752983,159.284
1335459812983,159.359
1335459872983,159.333
1335459932983,158.964
1335459992983,159.376
1335460052983,159.090
1335460112983,159.224
1335460172983,159.303
1335460232983,159.370
1335460292983,159.089
1335460352983,159.202
1335460412983,158.888
1335460472983,159.055
1335460532983,159.224
1335460592983,158.943
1335460652983,159.286
1335460712983,159.129
1335460772983,159.115
1335460832983,158.879
1335460892983,159.444
1335460952983,158.868
1335461012983,158.936
1335461072983,159.006
1335461132983,159.392
1335461192983,159.286
1335461252983,159.287
1335461312983,158.998
1335461372983,159.340
1335461432983,159.392
1335461492983,159.286
1335461552983,159.188
1335461612983,159.385
1335461672983,159.151
1335461732983,159.266
1335461792983,159.396
1335461852983,159.294
1335461912983,159.188
1335461972983,159.374
1335462032983,159.287
1335462092983,159.100
1335462152983,159.301
1335462212983,159.274
1335462272983,159.319
1335462332983,159.120
1335462392983,159.032
1335462452983,158.884
1335462512983,159.103
1335462572983,159.307
1335462632983,159.129
1335462692983,158.845
1335462752983,158.898
1335462812983,158.894
1335462872983,159.167
1335462932983,159.228
1335462992983,158.916
1335463052983,159.096
1335463112983,158.822
1335463172983,158.898
1335463232993,159.277
1335463292993,159.207
1335463352993,159.293
1335463412993,159.069
1335463472993,159.274
1335463532993,159.145
1335463592993,159.007
1335463652993,159.351
1335463712993,159.283
1335463772993,158.949